Regional Weather Roundup
Issued by NWS Sterling, VA

Home | Current Version | Previous Version | Graphics & Text | Print | Product List | Glossary On
Versions: 1 2 3 4 5 6 7 8 9 10 11 12 13 14 15 16 17 18 19 20 21 22 23 24 25 26 27
000
ASUS41 KLWX 212111
RWRLWX

REGIONAL WEATHER ROUNDUP
NATIONAL WEATHER SERVICE BALTIMORE MD/WASHINGTON DC
500 PM EDT FRI JUL 21 2017

Note: "FAIR" indicates few or no clouds below 12,000 feet
with no significant weather and/or obstructions to visibility.
 TC=TEMPERATURE CELSIUS

 * =Non NWS site. Station does not report precipitation (e.g. rain,
    snow, etc.), thunder, or fog.

DCZ001-MDZ009-015-VAZ040>042-051-053>054-212200-
WASHINGTON METRO

CITY           SKY/WX    TMP DP  RH WIND       PRES   REMARKS
WASHINGTON NAT PTSUNNY   96  71  44 SW7       29.89F HX 103
DULLES         MOSUNNY   91  69  48 SW3       29.90F HX  96
ANDREWS AFB    MOSUNNY   96  70  42 W7        29.89F HX 101
FT BELVOIR     SUNNY     95  70  44 SW6       29.89F HX 101
QUANTICO       SUNNY     93  75  55 S6        29.90F HX 104
COLLEGE PARK*  PTSUNNY   94  69  43 N3        29.88F HX 100
LEESBURG*      PTSUNNY   91  73  55 S3        29.91F HX 100
MANASSAS*      MOSUNNY   93  74  53 SE6       29.90F HX 103
GAITHERSBURG*  MOSUNNY   93  73  52 SW3       29.92F HX 102

$$

MDZ006>007-011-014-212200-
BALTIMORE METRO

CITY           SKY/WX    TMP DP  RH WIND       PRES   REMARKS
BWI AIRPORT    PTSUNNY   91  71  51 SE7       29.89F HX  97
MD SCIENCE CTR   N/A     92  71  50 MISG      29.89F HX  98
MARTIN STATE   MOSUNNY   91  72  52 E7        29.91F HX  98
ANNAPOLIS      MOSUNNY   89  73  59 SE10      29.89F HX  97
FORT MEADE*      N/A     90  70  51 S3        29.91F HX  95

$$

MDZ012-015-019>023-212200-
MARYLAND EASTERN SHORE

CITY           SKY/WX    TMP DP  RH WIND       PRES   REMARKS
OCEAN CITY     MOSUNNY   83  76  79 VRB5      29.91F HX  91
SALISBURY      MOSUNNY   91  75  59 W9        29.90  HX 102
BAY BRIDGE AP* SUNNY     93  68  43 S7        29.90F HX  97
CAMBRIDGE*     SUNNY     93  72  49 W6        29.90F HX 100
EASTON*        MOSUNNY   95  70  43 W6        29.94F HX 101

$$

MDZ017>025-212200-
SOUTHERN MARYLAND

CITY           SKY/WX    TMP DP  RH WIND       PRES   REMARKS
PATUXENT RIVER PTSUNNY   89  76  65 SE5       29.90F HX 100
ST INIGOES     PTSUNNY   91  74  57 VRB3      29.90F HX 100
LEONARDTOWN*   MOSUNNY  N/A N/A N/A SW5       29.92F

$$

MDZ003>005-212200-
NORTH CENTRAL MARYLAND

CITY           SKY/WX    TMP DP  RH WIND       PRES   REMARKS
FREDERICK*     NOT AVBL
HAGERSTOWN APT CLOUDY    91  71  51 E6        29.91F HX  97
WESTMINSTER*   PTSUNNY   93  72  49 SW3       29.93F HX 100

$$

MDZ501>502-212200-
WESTERN MARYLAND

CITY           SKY/WX    TMP DP  RH WIND       PRES   REMARKS
OAKLAND*       CLOUDY    72  70  94 W3        30.04F
CUMBERLAND*    CLOUDY    84  73  70 CALM      29.95F HX  91

$$

VAZ025>031-212200-
SHENANDOAH VALLEY

CITY           SKY/WX    TMP DP  RH WIND       PRES   REMARKS
WINCHESTER*    RAIN      79  72  78 NW13G18   29.94R
FRONT ROYAL*   CLOUDY    82  68  61 SW7       29.92F
LURAY*         CLOUDY    73  72  94 W5        29.95F
NEW MARKET*    CLOUDY    72  71  95 W3        29.95F
STAUNTON*      CLOUDY    77  70  78 SE3       30.01F
WAYNESBORO*    CLOUDY    76  74  95 S6        30.02F

$$

WVZ021-048>050-054>055-212200-
EASTERN WEST VIRGINIA PANHANDLE

CITY           SKY/WX    TMP DP  RH WIND       PRES   REMARKS
MARTINSBURG    HVY RAIN  84  75  74 S8        29.90F HX  92
PETERSBURG*    CLOUDY    77  73  87 CALM      29.96F

$$

VAZ036>039-050-212200-
CENTRAL FOOTHILLS

CITY           SKY/WX    TMP DP  RH WIND       PRES   REMARKS
CHARLOTTESVILL CLOUDY    80  74  81 CALM      29.95F
CULPEPER*      PTSUNNY   91  72  54 W14G24    29.91F HX  97
ORANGE*        PTSUNNY   84  68  58 NW15G23   29.94R
GORDONSVILLE*  MOSUNNY   84  70  61 NW9       29.93R
WARRENTON*     MOSUNNY   96  65  36 CALM      29.90F HX  98

$$

VAZ055>057-212200-
NORTH AND CENTRAL PIEDMONT

CITY           SKY/WX    TMP DP  RH WIND       PRES   REMARKS
FREDERICKSBRG* SUNNY     96  70  41 S5        29.89S HX 102
STAFFORD*      SUNNY     95  69  43 CALM      29.94F HX 100

$$

NCZ024-NYZ072-PAZ021-071-VAZ022-071-212200-
OTHER REGIONAL OBSERVATIONS

CITY           SKY/WX    TMP DP  RH WIND       PRES   REMARKS
NEW YORK CITY  MOSUNNY   90  64  42 VRB6      29.89S HX  91
PHILADELPHIA   PTSUNNY   93  68  43 SW12      29.89F HX  97
PITTSBURGH     PTSUNNY   87  71  58 W7        29.95F HX  93
ROANOKE        CLOUDY    90  71  53 NE13      30.00F HX  96
RICHMOND       PTSUNNY   96  68  39 NW6       29.91F HX 101
RALEIGH        CLOUDY    95  67  39 NW7       29.95F HX  99

$$

ANZ530>537-212200-
MARINE OBSERVATIONS

STATION/POSITION TIME  TEMP    WIND        PRES
                       AIR SEA DIR/SP/G
                 (UTC) (F)     (DEG/KT/KT) (MB)
THOMAS PT LIGHT  2000   87 83  160/  5/  5   N/A
BALT KEY BRIDGE  2048   87     130/ 12/ 13 1011.8F
COVE POINT       2048   87     170/  5/  6 1013.3F
LEWISETTA        2048   88 86  130/  6/  6 1012.7F
SOLOMONS ISLAND  2048   87 85   90/  5/  6   N/A
PINEY POINT      2042          360/  6/  6   N/A

$$





USA.gov is the U.S. government's official web portal to all federal, state and local government web resources and services.